This demonstration page uses our WeatherBlox Daily Observations layout. Learn more.

Left ArrowRight Arrow

34.74481, -87.66753

Hourly Observations for March 24, 2021

Temp ( °F °C ) Dew Point ( °F °C ) Humidity (%) Winds ( mph kmh ) Pressure ( in mb ) Visibility ( mi km ) Precip ( " mm )
12:53 am 00:53 Clear 59 15 52 11.1 78 78 SSE 7 11 29.86 1011 10 16 0.00 0.00
1:53 am 01:53 Clear 57 13.9 51 10.6 81 81 SE 5 7 29.85 1011 10 16 0.00 0.00
2:53 am 02:53 Clear 56 13.3 51 10.6 84 84 ESE 5 7 29.85 1011 10 16 0.00 0.00
3:53 am 03:53 Clear 53 11.7 49 9.4 86 86 ESE 5 7 29.85 1011 10 16 0.00 0.00
4:53 am 04:53 Clear with Mist and Fog 52 11.1 48 8.9 86 86 E 3 6 29.85 1011 5 8 0.00 0.00
5:04 am 05:04 Clear with Mist and Fog 52 11.1 48 8.9 86 86 E 3 6 29.87 1011 2 3 0.00 0.00
5:12 am 05:12 Clear with Mist and Fog 53 11.7 49 9.4 86 86 E 3 6 29.87 1012 3 5 0.00 0.00
5:34 am 05:34 Mostly Cloudy with Mist and Fog 54 12.2 50 10 87 87 ESE 3 6 29.88 1012 3 5 0.00 0.00
5:53 am 05:53 Cloudy with Mist and Fog 54 12.2 50 10 87 87 E 3 6 29.87 1012 6 10 0.00 0.00
6:20 am 06:20 Partly Cloudy with Mist and Fog 53 11.7 49 9.4 86 86 Calm 29.88 1012 3 4 0.00 0.00
6:26 am 06:26 Mostly Clear with Mist and Fog 54 12.2 50 10 87 87 Calm 29.89 1012 1 1 0.00 0.00
6:53 am 06:53 Sunny with Fog 51 10.6 47 8.3 86 86 E 5 7 29.89 1012 0 0 0.00 0.00
7:08 am 07:08 Mostly Cloudy with Fog 50 10 47 8.3 89 89 ESE 5 7 29.92 1013 0 0 0.00 0.00
7:18 am 07:18 Mostly Cloudy with Mist and Fog 53 11.7 49 9.4 86 86 SE 5 7 29.92 1013 1 2 0.00 0.00
7:21 am 07:21 Mostly Cloudy with Mist and Fog 54 12.2 50 10 87 87 SE 6 9 29.92 1013 3 5 0.00 0.00
7:43 am 07:43 Cloudy 55 12.8 51 10.6 87 87 SE 3 6 29.93 1014 7 11 0.00 0.00
7:53 am 07:53 Cloudy 56 13.3 52 11.1 87 87 ESE 3 6 29.92 1013 8 13 0.00 0.00
8:53 am 08:53 Cloudy 58 14.4 54 12.2 87 87 S 5 7 29.92 1013 10 16 0.00 0.00
9:53 am 09:53 Cloudy 59 15 53 11.7 81 81 SSW 6 9 29.94 1014 10 16 0.00 0.00
10:53 am 10:53 Cloudy 61 16.1 53 11.7 75 75 S 6 9 29.94 1014 10 16 0.00 0.00
11:53 am 11:53 Cloudy 63 17.2 54 12.2 73 73 S 6 9 29.94 1014 10 16 0.00 0.00
1:28 pm 13:28 Partly Cloudy 68 20 57 13.9 68 68 SSW 6 9 29.91 1013 10 16 0.00 0.00
1:53 pm 13:53 Sunny 70 21.1 56 13.3 61 61 SSW 6 9 29.91 1013 10 16 0.00 0.00
2:53 pm 14:53 Sunny 74 23.3 55 12.8 52 52 VRB 5 7 29.88 1012 10 16 0.00 0.00
3:53 pm 15:53 Mostly Sunny 76 24.4 53 11.7 45 45 S 6 9 29.88 1012 10 16 0.00 0.00
4:53 pm 16:53 Mostly Sunny 77 25 49 9.4 37 37 S 5 7 29.88 1012 10 16 0.00 0.00
5:53 pm 17:53 Sunny 76 24.4 49 9.4 39 39 SW 7 11 29.88 1012 10 16 0.00 0.00
6:53 pm 18:53 Sunny 74 23.3 48 8.9 40 40 S 3 6 29.88 1012 10 16 0.00 0.00
7:53 pm 19:53 Clear 64 17.8 50 10 60 60 Calm 29.89 1012 10 16 0.00 0.00
8:53 pm 20:53 Clear 61 16.1 52 11.1 72 72 SE 3 6 29.92 1013 10 16 0.00 0.00
9:53 pm 21:53 Mostly Clear 62 16.7 52 11.1 70 70 Calm 29.91 1013 10 16 0.00 0.00
10:53 pm 22:53 Mostly Clear 61 16.1 50 10 67 67 ESE 8 13 29.88 1012 10 16 0.00 0.00
11:53 pm 23:53 Clear 63 17.2 51 10.6 65 65 SE 5 7 29.88 1012 10 16 0.00 0.00

Powered by AerisWeather